Time,TemperatureF,DewpointF,PressureIn,WindDirection,WindDirectionDegrees,WindSpeedMPH,WindSpeedGustMPH,Humidity,HourlyPrecipIn,Conditions,Clouds,dailyrainin,SoftwareType,DateUTC
2013-07-13 00:32:00,70.0,-99.9,30.08,ENE,76,4.0,8.0,-999,-99.99,,,-99.99,,2013-07-13 04:32:00,
2013-07-13 00:44:00,70.0,-99.9,30.07,ENE,78,4.0,6.0,-999,-99.99,,,-99.99,,2013-07-13 04:44:00,
2013-07-13 01:01:00,70.0,-99.9,30.07,East,84,5.0,7.0,-999,-99.99,,,-99.99,,2013-07-13 05:01:00,
2013-07-13 01:22:00,70.0,-99.9,30.08,East,88,4.0,8.0,-999,-99.99,,,-99.99,,2013-07-13 05:22:00,
2013-07-13 01:33:00,70.0,-99.9,30.08,East,84,4.0,6.0,-999,-99.99,,,-99.99,,2013-07-13 05:33:00,
2013-07-13 01:42:00,70.0,-99.9,30.08,ENE,72,7.0,11.0,-999,-99.99,,,-99.99,,2013-07-13 05:42:00,
2013-07-13 02:02:00,70.0,-99.9,30.09,ENE,71,5.0,9.0,-999,-99.99,,,-99.99,,2013-07-13 06:02:00,
2013-07-13 02:52:00,70.0,-99.9,30.09,ENE,57,9.0,13.0,-999,-99.99,,,-99.99,,2013-07-13 06:52:00,
2013-07-13 03:02:00,70.0,-99.9,30.09,NE,56,9.0,13.0,-999,-99.99,,,-99.99,,2013-07-13 07:02:00,
2013-07-13 03:33:00,70.0,-99.9,30.08,ENE,70,7.0,14.0,-999,-99.99,,,-99.99,,2013-07-13 07:33:00,
2013-07-13 03:44:00,70.0,-99.9,30.08,ENE,67,4.0,10.0,-999,-99.99,,,-99.99,,2013-07-13 07:44:00,
2013-07-13 03:53:00,70.0,-99.9,30.08,East,95,3.0,5.0,-999,-99.99,,,-99.99,,2013-07-13 07:53:00,
2013-07-13 04:02:00,70.0,-99.9,30.09,East,81,5.0,7.0,-999,-99.99,,,-99.99,,2013-07-13 08:02:00,
2013-07-13 04:22:00,70.0,-99.9,30.09,East,84,4.0,6.0,-999,-99.99,,,-99.99,,2013-07-13 08:22:00,
2013-07-13 04:33:00,70.0,-99.9,30.09,ENE,76,2.0,4.0,-999,-99.99,,,-99.99,,2013-07-13 08:33:00,
2013-07-13 04:43:00,70.0,-99.9,30.10,ENE,78,2.0,4.0,-999,-99.99,,,-99.99,,2013-07-13 08:43:00,
2013-07-13 04:52:00,70.0,-99.9,30.11,ENE,59,2.0,4.0,-999,-99.99,,,-99.99,,2013-07-13 08:52:00,
2013-07-13 05:02:00,70.0,-99.9,30.11,ENE,65,4.0,6.0,-999,-99.99,,,-99.99,,2013-07-13 09:02:00,
2013-07-13 05:22:00,70.0,-99.9,30.12,East,93,2.0,4.0,-999,-99.99,,,-99.99,,2013-07-13 09:22:00,
2013-07-13 05:33:00,70.0,-99.9,30.12,East,96,3.0,4.0,-999,-99.99,,,-99.99,,2013-07-13 09:33:00,
2013-07-13 05:43:00,70.0,-99.9,30.12,East,98,2.0,3.0,-999,-99.99,,,-99.99,,2013-07-13 09:43:00,
2013-07-13 06:32:00,70.0,-99.9,30.13,East,82,3.0,5.0,-999,-99.99,,,-99.99,,2013-07-13 10:32:00,
2013-07-13 06:43:00,70.0,-99.9,30.14,ENE,77,2.0,5.0,-999,-99.99,,,-99.99,,2013-07-13 10:43:00,
2013-07-13 06:52:00,70.0,-99.9,30.14,ENE,74,4.0,6.0,-999,-99.99,,,-99.99,,2013-07-13 10:52:00,
2013-07-13 07:02:00,71.0,-99.9,30.14,East,84,3.0,5.0,-999,-99.99,,,-99.99,,2013-07-13 11:02:00,
2013-07-13 07:32:00,71.0,-99.9,30.15,East,83,4.0,5.0,-999,-99.99,,,-99.99,,2013-07-13 11:32:00,
2013-07-13 08:02:00,71.0,-99.9,30.16,East,85,2.0,4.0,-999,-99.99,,,-99.99,,2013-07-13 12:02:00,
2013-07-13 08:22:00,71.0,-99.9,30.17,East,79,3.0,5.0,-999,-99.99,,,-99.99,,2013-07-13 12:22:00,
2013-07-13 09:01:00,71.0,-99.9,30.18,East,82,4.0,5.0,-999,-99.99,,,-99.99,,2013-07-13 13:01:00,
2013-07-13 09:12:00,71.0,-99.9,30.18,ENE,74,4.0,6.0,-999,-99.99,,,-99.99,,2013-07-13 13:12:00,
2013-07-13 09:22:00,71.0,-99.9,30.19,East,83,3.0,6.0,-999,-99.99,,,-99.99,,2013-07-13 13:22:00,
2013-07-13 09:32:00,72.0,-99.9,30.20,ENE,71,3.0,6.0,-999,-99.99,,,-99.99,,2013-07-13 13:32:00,
2013-07-13 09:43:00,72.0,-99.9,30.20,ENE,76,3.0,5.0,-999,-99.99,,,-99.99,,2013-07-13 13:43:00,
2013-07-13 10:02:00,73.0,-99.9,30.20,East,80,4.0,6.0,-999,-99.99,,,-99.99,,2013-07-13 14:02:00,
2013-07-13 10:11:00,73.0,-99.9,30.19,East,89,3.0,4.0,-999,-99.99,,,-99.99,,2013-07-13 14:11:00,
2013-07-13 10:33:00,74.0,-99.9,30.20,ENE,73,4.0,6.0,-999,-99.99,,,-99.99,,2013-07-13 14:33:00,
2013-07-13 11:02:00,75.0,-99.9,30.21,East,92,4.0,5.0,-999,-99.99,,,-99.99,,2013-07-13 15:02:00,
2013-07-13 11:33:00,75.0,-99.9,30.21,East,84,3.0,5.0,-999,-99.99,,,-99.99,,2013-07-13 15:33:00,
2013-07-13 11:43:00,75.0,-99.9,30.21,ESE,102,4.0,6.0,-999,-99.99,,,-99.99,,2013-07-13 15:43:00,
2013-07-13 12:02:00,75.0,-99.9,30.20,ENE,62,2.0,3.0,-999,-99.99,,,-99.99,,2013-07-13 16:02:00,
2013-07-13 12:33:00,77.0,-99.9,30.21,ENE,71,3.0,5.0,-999,-99.99,,,-99.99,,2013-07-13 16:33:00,
2013-07-13 12:43:00,78.0,-99.9,30.20,ENE,63,4.0,6.0,-999,-99.99,,,-99.99,,2013-07-13 16:43:00,
2013-07-13 12:53:00,78.0,-99.9,30.21,NE,54,4.0,6.0,-999,-99.99,,,-99.99,,2013-07-13 16:53:00,
2013-07-13 13:02:00,79.0,-99.9,30.21,ENE,77,4.0,8.0,-999,-99.99,,,-99.99,,2013-07-13 17:02:00,
2013-07-13 13:12:00,80.0,-99.9,30.21,ESE,121,6.0,9.0,-999,-99.99,,,-99.99,,2013-07-13 17:12:00,
2013-07-13 13:22:00,80.0,-99.9,30.21,SE,138,7.0,9.0,-999,-99.99,,,-99.99,,2013-07-13 17:22:00,
2013-07-13 13:33:00,80.0,-99.9,30.21,SE,135,4.0,7.0,-999,-99.99,,,-99.99,,2013-07-13 17:33:00,
2013-07-13 13:43:00,81.0,-99.9,30.21,ESE,121,9.0,12.0,-999,-99.99,,,-99.99,,2013-07-13 17:43:00,
2013-07-13 13:52:00,82.0,-99.9,30.20,ESE,110,4.0,6.0,-999,-99.99,,,-99.99,,2013-07-13 17:52:00,
2013-07-13 14:02:00,81.0,-99.9,30.20,ESE,104,7.0,10.0,-999,-99.99,,,-99.99,,2013-07-13 18:02:00,
2013-07-13 14:22:00,81.0,-99.9,30.20,ESE,102,7.0,10.0,-999,-99.99,,,-99.99,,2013-07-13 18:22:00,
2013-07-13 14:32:00,81.0,-99.9,30.20,East,93,6.0,9.0,-999,-99.99,,,-99.99,,2013-07-13 18:32:00,
2013-07-13 14:44:00,80.0,-99.9,30.20,ESE,104,2.0,3.0,-999,-99.99,,,-99.99,,2013-07-13 18:44:00,
2013-07-13 14:53:00,78.0,-99.9,30.21,ENE,73,2.0,4.0,-999,-99.99,,,-99.99,,2013-07-13 18:53:00,
2013-07-13 15:02:00,78.0,-99.9,30.21,ENE,77,0.0,1.0,-999,-99.99,,,-99.99,,2013-07-13 19:02:00,
2013-07-13 15:11:00,78.0,-99.9,30.22,West,270,-999.0,5.0,-999,-99.99,,,-99.99,,2013-07-13 19:11:00,
2013-07-13 15:22:00,76.0,-99.9,30.22,East,93,1.0,2.0,-999,-99.99,,,-99.99,,2013-07-13 19:22:00,
2013-07-13 15:32:00,76.0,-99.9,30.22,ENE,68,2.0,2.0,-999,-99.99,,,-99.99,,2013-07-13 19:32:00,
2013-07-13 15:44:00,75.0,-99.9,30.21,NE,45,2.0,3.0,-999,-99.99,,,-99.99,,2013-07-13 19:44:00,
2013-07-13 15:52:00,76.0,-99.9,30.21,East,100,3.0,3.0,-999,-99.99,,,-99.99,,2013-07-13 19:52:00,
2013-07-13 16:02:00,76.0,-99.9,30.21,East,88,3.0,4.0,-999,-99.99,,,-99.99,,2013-07-13 20:02:00,
2013-07-13 16:12:00,77.0,-99.9,30.21,ENE,57,3.0,5.0,-999,-99.99,,,-99.99,,2013-07-13 20:12:00,
2013-07-13 16:33:00,77.0,-99.9,30.20,ENE,58,5.0,6.0,-999,-99.99,,,-99.99,,2013-07-13 20:33:00,
2013-07-13 16:43:00,77.0,-99.9,30.21,East,88,3.0,5.0,-999,-99.99,,,-99.99,,2013-07-13 20:43:00,
2013-07-13 16:53:00,77.0,-99.9,30.21,East,100,4.0,6.0,-999,-99.99,,,-99.99,,2013-07-13 20:53:00,
2013-07-13 17:02:00,77.0,-99.9,30.21,ESE,102,4.0,5.0,-999,-99.99,,,-99.99,,2013-07-13 21:02:00,
2013-07-13 17:22:00,76.0,-99.9,30.21,NE,51,1.0,2.0,-999,-99.99,,,-99.99,,2013-07-13 21:22:00,
2013-07-13 17:32:00,76.0,-99.9,30.21,ENE,66,2.0,4.0,-999,-99.99,,,-99.99,,2013-07-13 21:32:00,
2013-07-13 17:43:00,77.0,-99.9,30.22,SE,141,3.0,5.0,-999,-99.99,,,-99.99,,2013-07-13 21:43:00,
2013-07-13 18:01:00,78.0,-99.9,30.21,East,92,3.0,5.0,-999,-99.99,,,-99.99,,2013-07-13 22:01:00,
2013-07-13 18:12:00,78.0,-99.9,30.22,ESE,112,4.0,6.0,-999,-99.99,,,-99.99,,2013-07-13 22:12:00,
2013-07-13 18:32:00,78.0,-99.9,30.22,East,89,5.0,7.0,-999,-99.99,,,-99.99,,2013-07-13 22:32:00,
2013-07-13 18:43:00,78.0,-99.9,30.23,East,91,4.0,6.0,-999,-99.99,,,-99.99,,2013-07-13 22:43:00,
2013-07-13 18:53:00,77.0,-99.9,30.23,ESE,115,4.0,6.0,-999,-99.99,,,-99.99,,2013-07-13 22:53:00,
2013-07-13 19:02:00,77.0,-99.9,30.23,ESE,103,3.0,5.0,-999,-99.99,,,-99.99,,2013-07-13 23:02:00,
2013-07-13 19:11:00,77.0,-99.9,30.23,East,99,3.0,5.0,-999,-99.99,,,-99.99,,2013-07-13 23:11:00,
2013-07-13 19:22:00,77.0,-99.9,30.23,ESE,112,3.0,5.0,-999,-99.99,,,-99.99,,2013-07-13 23:22:00,
2013-07-13 19:33:00,77.0,-99.9,30.23,SE,138,5.0,8.0,-999,-99.99,,,-99.99,,2013-07-13 23:33:00,
2013-07-13 19:43:00,77.0,-99.9,30.23,SE,125,5.0,7.0,-999,-99.99,,,-99.99,,2013-07-13 23:43:00,
2013-07-13 19:53:00,77.0,-99.9,30.23,ESE,120,4.0,5.0,-999,-99.99,,,-99.99,,2013-07-13 23:53:00,
2013-07-13 20:01:00,77.0,-99.9,30.23,ESE,118,3.0,5.0,-999,-99.99,,,-99.99,,2013-07-14 00:01:00,
2013-07-13 20:12:00,77.0,-99.9,30.24,SE,124,1.0,5.0,-999,-99.99,,,-99.99,,2013-07-14 00:12:00,
2013-07-13 20:33:00,77.0,-99.9,30.24,ESE,115,4.0,6.0,-999,-99.99,,,-99.99,,2013-07-14 00:33:00,
2013-07-13 20:42:00,76.0,-99.9,30.24,SE,138,6.0,9.0,-999,-99.99,,,-99.99,,2013-07-14 00:42:00,
2013-07-13 20:53:00,76.0,-99.9,30.24,SE,124,3.0,5.0,-999,-99.99,,,-99.99,,2013-07-14 00:53:00,
2013-07-13 21:02:00,76.0,-99.9,30.24,SSE,153,4.0,6.0,-999,-99.99,,,-99.99,,2013-07-14 01:02:00,
2013-07-13 21:11:00,76.0,-99.9,30.24,SSE,155,3.0,5.0,-999,-99.99,,,-99.99,,2013-07-14 01:11:00,
2013-07-13 21:22:00,76.0,-99.9,30.24,SSE,162,3.0,4.0,-999,-99.99,,,-99.99,,2013-07-14 01:22:00,
2013-07-13 21:32:00,75.0,-99.9,30.24,SSE,165,3.0,4.0,-999,-99.99,,,-99.99,,2013-07-14 01:32:00,
2013-07-13 21:43:00,75.0,-99.9,30.25,SE,134,2.0,3.0,-999,-99.99,,,-99.99,,2013-07-14 01:43:00,
2013-07-13 21:52:00,75.0,-99.9,30.25,East,93,1.0,2.0,-999,-99.99,,,-99.99,,2013-07-14 01:52:00,
2013-07-13 22:02:00,75.0,-99.9,30.25,SE,127,2.0,3.0,-999,-99.99,,,-99.99,,2013-07-14 02:02:00,
2013-07-13 22:11:00,75.0,-99.9,30.25,East,89,2.0,3.0,-999,-99.99,,,-99.99,,2013-07-14 02:11:00,
2013-07-13 22:22:00,75.0,-99.9,30.25,ENE,61,2.0,3.0,-999,-99.99,,,-99.99,,2013-07-14 02:22:00,
2013-07-13 22:32:00,75.0,-99.9,30.25,NE,50,2.0,2.0,-999,-99.99,,,-99.99,,2013-07-14 02:32:00,
2013-07-13 22:43:00,74.0,-99.9,30.25,NNE,18,1.0,2.0,-999,-99.99,,,-99.99,,2013-07-14 02:43:00,
2013-07-13 22:53:00,74.0,-99.9,30.26,SW,234,-999.0,2.0,-999,-99.99,,,-99.99,,2013-07-14 02:53:00,
2013-07-13 23:02:00,75.0,-99.9,30.26,South,179,0.0,1.0,-999,-99.99,,,-99.99,,2013-07-14 03:02:00,
2013-07-13 23:12:00,74.0,-99.9,30.26,North,353,2.0,2.0,-999,-99.99,,,-99.99,,2013-07-14 03:12:00,
2013-07-13 23:22:00,74.0,-99.9,30.26,NE,40,2.0,3.0,-999,-99.99,,,-99.99,,2013-07-14 03:22:00,
2013-07-13 23:32:00,74.0,-99.9,30.26,NE,39,0.0,1.0,-999,-99.99,,,-99.99,,2013-07-14 03:32:00,
2013-07-13 23:43:00,75.0,-99.9,30.26,East,85,1.0,1.0,-999,-99.99,,,-99.99,,2013-07-14 03:43:00,
2013-07-13 23:53:00,75.0,-99.9,30.26,SSE,159,0.0,1.0,-999,-99.99,,,-99.99,,2013-07-14 03:53:00,